Вернуться в каталог

DELTA 1 DEB

АктивенSSO
NORAD 37641·DEBRIS·🇺🇸 United States

Запущен Mar 5, 1978 с Vandenberg Space Force Base

Loading…

Ближайшие Пролёты (ближайшие 24 часа)

TLE

СвежийSource: Space-Track

Эпоха: Sep 13, 2026, 07:33 UTC

1 37641U 78026JC  26256.31522352  .00000683  00000-0  25845-3 0  9992
2 37641  98.7623 289.8922 0071111 165.4537 194.8716 14.33040358368037

Отслеживайте DELTA 1 DEB в реальном времени с AllMySat

Download on the App Store